AirNav   Air Wisconsin pilot careers
 
 389 users online  

K98 Allison Municipal Airport
Allison, Iowa, USA

GOING TO ALLISON?


FAA INFORMATION EFFECTIVE 06 DECEMBER 2018

Location

FAA Identifier: K98
Lat/Long: 42-45-49.9150N / 092-48-15.7000W
42-45.831917N / 092-48.261667W
42.7638653 / -92.8043611
(estimated)
Elevation: 1053 ft. / 321.0 m (surveyed)
Variation: 03E (1985)
Time zone: UTC -6 (UTC -5 during Daylight Saving Time)
Zip code: 50602

Airport Operations

Airport use: Open to the public
Activation date: 10/1958
Control tower: no
ARTCC: CHICAGO CENTER
FSS: FORT DODGE FLIGHT SERVICE STATION
NOTAMs facility: FOD (NOTAM-D service available)
Attendance: UNATNDD
Pattern altitude: 1853 ft. MSL
Wind indicator: yes
Segmented circle: no

Airport Communications

CTAF: 122.9
WX AWOS-3 at HPT (19 nm W): 121.025 (641-456-4055)

Nearby radio navigation aids

VOR radial/distance  VOR name  Freq  Var
ALOr305/21.8WATERLOO VOR/DME112.2000E
MCWr125/30.4MASON CITY VOR/DME114.9006E
JWJr006/39.4ELMWOOD VOR/DME109.4001E

Airport Services

Airframe service: NONE
Powerplant service: NONE
Bottled oxygen: NONE
Bulk oxygen: NONE

Runway Information

Runway 18/36

Dimensions: 1790 x 175 ft. / 546 x 53 m
Surface: turf, in fair condition
Runway edge markings: & 36 THLDS & EDGES MARKED WITH YELLOW CONES.
RUNWAY 18  RUNWAY 36
Traffic pattern: leftleft
Obstructions: none41 ft. pole, 1044 ft. from runway, 25:1 slope to clear
ANTENNA 60 FT RGT OF RY CNTRLN.

Airport Ownership and Management from official FAA records

Ownership: Publicly-owned
Owner: CITY OF ALLISON
823 BIRCH STREET
ALLISON, IA 50602
Phone 319-267-2245
Manager: JAY SCHRAGE
20664 - 190TH STREET
ALLISON, IA 50602
Phone (319) 267-2495
CELL PHONE: 319-239-5048

Airport Operational Statistics

Aircraft based on the field: 5
Single engine airplanes: 2
Ultralights: 3
    
Aircraft operations: avg 24/week *
60% transient general aviation
40% local general aviation
* for 12-month period ending 12 July 2018

Additional Remarks

ARPT CLSD WINTER MONTHS.
ARPT CLSD TO NGT OPNS.
RY 36 IS CALM WIND RY.

Instrument Procedures

There are no published instrument procedures at K98.

Some nearby airports with instrument procedures:

C25 - Waverly Municipal Airport (13 nm E)
KHPT - Hampton Municipal Airport (19 nm W)
KCCY - Northeast Iowa Regional Airport (20 nm NE)
KALO - Waterloo Regional Airport (22 nm SE)
KIFA - Iowa Falls Municipal Airport (27 nm SW)
 
Loc | Ops | Rwys | IFR | FBO | Links
Com | Nav | Svcs | Stats | Notes


 
Area around K98 (Allison Municipal Airport)
 
Road maps at: MapQuest Bing Google
 
Aerial photo
WARNING: Photo may not be current or correct
Aerial photo of K98 (Allison Municipal Airport)
Do you have a better or more recent aerial photo of Allison Municipal Airport that you would like to share? If so, please send us your photo.

 
Sectional chart

 
Airport distance calculator
Flying to Allison Municipal Airport? Find the distance to fly.

From to K98

Sunrise and sunset
Times for 13-Dec-2018
 Local
(UTC-6)
 Zulu
(UTC)
Morning civil twilight07:0213:02
Sunrise07:3413:34
Sunset16:3722:37
Evening civil twilight17:0923:09

Current date and time
Zulu (UTC)  13-Dec-2018 07:13:37
Local (UTC-6)  13-Dec-2018 01:13:37
 
METAR
KHPT 
19nm W 
130655Z AUTO 13006KT 1/2SM FZFG OVC003 M01/M01 A2988 RMK AO2
KCCY 
20nm NE 
130655Z AUTO 12005KT M1/4SM FZFG OVC002 M04/M05 A2991 RMK AO2
KALO 
22nm SE 
130703Z 12006KT 3SM BR OVC004 M02/M03 A2991 RMK AO2 T10171028
KIFA 
27nm SW 
130655Z AUTO 11006KT 5SM BR CLR M04/M05 A2988 RMK AO2 T10441049
KMCW 
33nm NW 
130653Z AUTO 13009KT 1/4SM FZFG VV002 M03/M03 A2988 RMK AO2 SLP131 I1002 T10281028
TAF
KALO 
22nm SE 
130536Z 1306/1406 12004KT 4SM BR FEW005 BKN250 TEMPO 1306/1307 BKN005 FM131200 12005KT P6SM OVC035 FM131800 09004KT P6SM OVC030 FM132000 35007KT P6SM OVC020
NOTAMs
Click for the latest NOTAMs
NOTAMs are issued by the DoD/FAA and will open in a separate window not controlled by AirNav.

 

 
 

Would you like to see your business listed on this page?

 If your business provides an interesting product or service to pilots, flight crews, aircraft, or users of the Allison Municipal Airport, you should consider listing it here.  To start the listing process, click on the button below
 
Add a business
 

Other Pages about Allison Municipal Airport

Page from the Iowa Airport Directory
 
Update a link
 
Copyright © AirNav, LLC. All rights reserved. Privacy Policy  Contact